Flag for Germany Weather past 2 weeks in Gross-Gerau, Hesse, Germany

Now
79 °F

Sunny.


Feels Like: 79 °F
Forecast: 62 / 84 °F
Wind: 3 mph from Southeast

Location: Frankfurt-M-Flughafen Airport

Current Time: Aug 1, 2014 at 4:28:22 PM

Latest Report: Aug 1, 2014 at 3:50 PM


Visibility: 10 mi

Pressure: 29.83 "Hg

Humidity: 45%

Dew point: 55 °F

Location of Gross-GerauLocation

Historic Weather in Gross-Gerau — Graph

°F

Gross-Gerau temperature yesterday

Maximum temperature yesterday: 79 °F (at 4:20 PM)
Minimum temperature yesterday: 63 °F (at 5:50 AM)
Average temperature yesterday: 70 °F

Past Weeks' High & Low Weather Summary

 TemperatureHumidityPressure
High93 °F (Jul 19, 4:20 PM)100% (Jul 20, 11:20 PM)30.15 "Hg (Jul 20, 11:20 PM)
Low59 °F (Jul 26, 4:20 AM)23% (Jul 18, 6:20 PM)29.71 "Hg (Jul 29, 4:50 PM)
Average73 °F69%29.92 "Hg
* Reported Jul 17 3:20 PM — Aug 1 3:20 PM, Gross-Gerau, Weather by CustomWeather, © 2014

Note: Actual official high and low records may vary slightly from our data, if they occured in-between our weather recording intervals... More about our weather records

Advertising

Gross-Gerau weather history for previous 24 hours

 ConditionsComfort  
Time TempWeatherWind HumidityBarometerVisibility
3:20 PM
Aug 1
81 °FSunny.3 mph45%29.83 "Hg10 mi
2:50 PM81 °FPassing clouds.6 mph45%29.86 "HgN/A
2:20 PM79 °FSunny.3 mph45%29.86 "Hg10 mi
1:50 PM77 °FPassing clouds.5 mph51%29.86 "HgN/A
1:20 PM77 °FSunny.6 mph51%29.86 "Hg10 mi
12:50 PM79 °FPartly sunny.5 mph48%29.86 "HgN/A
12:20 PM77 °FPartly sunny.3 mph54%29.89 "HgN/A
11:50 AM75 °FPartly sunny.5 mph61%29.89 "HgN/A
11:20 AM75 °FPartly sunny.3 mph61%29.89 "HgN/A
10:50 AM72 °FBroken clouds.3 mph73%29.89 "HgN/A
10:20 AM72 °FSunny.5 mph69%29.89 "Hg10 mi
9:50 AM70 °FSunny.6 mph73%29.89 "Hg10 mi
9:20 AM68 °FSunny.7 mph73%29.92 "Hg10 mi
8:50 AM64 °FSunny.8 mph78%29.92 "Hg10 mi
8:20 AM63 °FSunny.6 mph83%29.92 "Hg10 mi
7:50 AM63 °FSunny.5 mph83%29.92 "Hg10 mi
7:20 AM61 °FSunny.5 mph88%29.92 "Hg10 mi
6:50 AM61 °FClear.6 mph88%29.92 "Hg10 mi
6:20 AM61 °FClear.6 mph88%29.92 "Hg10 mi
5:50 AM61 °FClear.6 mph88%29.92 "Hg10 mi
5:20 AM61 °FClear.5 mph88%29.92 "Hg10 mi
4:50 AM61 °FClear.6 mph94%29.92 "Hg10 mi
4:20 AM61 °FClear.3 mph94%29.92 "Hg10 mi
3:50 AM61 °FClear.3 mph88%29.92 "Hg10 mi
3:20 AM61 °FClear.3 mph88%29.92 "Hg10 mi
2:50 AM61 °FClear.3 mph88%29.92 "Hg10 mi
2:20 AM61 °FClear.3 mph88%29.92 "Hg10 mi
1:50 AM61 °FClear.3 mph88%29.92 "Hg10 mi
1:20 AM63 °FClear.3 mph83%29.95 "Hg10 mi
12:50 AM63 °FClear.3 mph88%29.95 "Hg10 mi
12:20 AM63 °FClear.3 mph83%29.95 "Hg10 mi
11:50 PM
Jul 31
64 °FClear.1 mph78%29.95 "Hg10 mi
11:20 PM64 °FClear.2 mph78%29.95 "Hg10 mi
10:50 PM66 °FClear.2 mph73%29.95 "Hg10 mi
10:20 PM66 °FClear.3 mph73%29.95 "Hg10 mi
9:50 PM70 °FSunny.3 mph60%29.95 "Hg10 mi
9:20 PM72 °FSunny.2 mph57%29.92 "Hg10 mi
8:50 PM75 °FSunny.2 mph47%29.92 "Hg10 mi
8:20 PM77 °FSunny.3 mph44%29.92 "Hg10 mi
7:50 PM77 °FSunny.3 mph44%29.92 "Hg10 mi
7:20 PM77 °FSunny.3 mph42%29.92 "Hg10 mi
6:50 PM77 °FSunny.5 mph42%29.92 "Hg10 mi
6:20 PM77 °FSunny.5 mph44%29.92 "Hg10 mi
5:50 PM79 °FSunny.3 mph39%29.95 "Hg10 mi
5:20 PM77 °FSunny.5 mph44%29.95 "Hg10 mi
4:50 PM79 °FSunny.3 mph42%29.95 "Hg10 mi
4:20 PM79 °FSunny.6 mph37%29.95 "Hg10 mi
Weather by CustomWeather, © 2014

See weather overviewHow to use our weather pages